Regional Weather Roundup
Issued by NWS Midland/Odessa, TX

Skip options and go directly to product.
Home | Oldest Version | Previous Version | Current Version | All | Text Only | Save Text | Print | Product List | Glossary Off

Skip product version selection by date and time.   

046
ASUS44 KMAF 211002
RWRMAF
MIDLAND AREA WEATHER ROUNDUP
NATIONAL WEATHER SERVICE MIDLAND TX
500 AM CDT MON APR 21 2014

...IN SOUTHWEST TEXAS AND SOUTHEAST NEW MEXICO...

CITY           SKY/WX    TMP DP  RH WIND       PRES   REMARKS
ALPINE         CLEAR     55  46  72 S7        30.18S
ANDREWS        FAIR      60  59  97 SW9       30.03S
ARTESIA        CLEAR     54  41  62 NW9       30.06R
BIG SPRING     CLOUDY    65  61  86 S16       30.04R
CARLSBAD       CLEAR     57  44  62 NW9       30.03S
DRYDEN           N/A     70  64  81 SE3       30.03S
FORT STOCKTON  CLEAR     60  57  89 S12       30.05R
GUAD PASS      CLEAR     57  36  45 SW7       30.16F
HOBBS          CLEAR     54  43  66 S3        30.07S
MARFA          CLEAR     43  36  75 CALM      30.17S
MIDLAND AIRPK  CLOUDY    64  60  88 SW14      30.03S FOG
MIDLAND INTL   CLOUDY    63  61  93 SW13      30.03R FOG
ODESSA         CLOUDY    63  60  90 S13G18    30.04R FOG
PECOS          CLEAR     51  47  85 W5        30.03S
PRESIDIO       FAIR      67  55  66 N7        30.05R
SEMINOLE       CLEAR     58  56  93 W8        30.04F
SNYDER         CLOUDY    62  60  94 SW8       30.01R
WINK           CLEAR     59  58  96 SE5       30.02R
$$
...OTHER STATIONS IN TEXAS...

CITY           SKY/WX    TMP DP  RH WIND       PRES   REMARKS
ABILENE        MOCLDY    66  60  81 SW20G29   29.96S
AMARILLO       CLEAR     50  49  96 W10       30.01S
AUSTIN         CLOUDY    65  62  90 S7        30.03F
BROWNSVILLE    CLOUDY    69  67  93 SE7       30.01R
CORPUS CHRISTI CLOUDY    70  65  84 SE7       30.03F
DALLAS FTW     MOCLDY    63  60  90 SE8       29.99F
DEL RIO        CLOUDY    69  64  84 E9        30.01S
EL PASO        FAIR      58  43  57 SE7       30.09S
HOUSTON INT    PTCLDY    61  60  97 S5        30.08R
LUBBOCK        CLEAR     52  48  86 W7        30.01R
SAN ANGELO     PTCLDY    66  62  87 SW10      30.00S
SAN ANTONIO    CLOUDY    68  63  84 S7        30.05S
WACO           PTCLDY    63  59  87 S12       30.02S
WICHITA FALLS  NOT AVBL
$$
...OTHER LOCATIONS IN NEW MEXICO...

CITY           SKY/WX    TMP DP  RH WIND       PRES   REMARKS
ALAMAGORDO     PTCLDY    57  36  44 CALM      30.11S
ALBUQUERQUE    PTCLDY    53  35  50 SE5       30.17R
CANNON AFB     CLEAR     55  42  62 NW9       30.07S
CLOVIS           N/A     54  43  66 NW14      30.08F
HOLLOMAN AFB   PTCLDY    52  39  62 SE2       30.09S
ROSWELL        CLEAR     53  43  68 W5        30.06S
RUIDOSO        CLEAR     52  32  46 W8        30.24R
SANTA FE       CLOUDY    47  36  65 NE8       30.21R
TRUTH OR CONSE FAIR      56  38  50 W10       30.13S
TUCUMCARI      CLEAR     54  42  64 NW8       30.06R
$$

USA.gov is the U.S. government's official web portal to all federal, state and local government web resources and services.